STARLINK-1351, 45697

Orbit data source: Space-Track

STARLINK-1351, 45697 is a payload satellite owned by SpaceX/Seattle (US) in LEO that was launched on Thu, 04 Jun 2020 UTC via an FALCON 9 launch vehicle from the Air Force Eastern Test Range (AFETR). Payload-class satellites include a variety of spacecraft equipped with specific instruments for various scientific and technological missions. These include communications satellites like Starlink; space stations such as the ISS; scientific satellites like the Hubble; Earth observation satellites from companies like Planet Labs, Umbra, and HawkEye 360; GPS; miniature CubeSats for education and research; and military/defense satellites.

Not visible in the next 10 days
Identifier
45697, 2020-035AS
Orbit
LEO
Country
Flag of USUS
Related business
Manufacturer
SpaceX/Seattle
Mission
Partially operational Commercial Communications
Bus & Motor
STARLINK, Unknown motor
Mass
260 kg wet, ~248 kg dry
Launch date (UTC)
2020-06-04 (6 years ago)
Launch vehicle
FALCON 9
Launch site
Air Force Eastern Test Range (AFETR)
Object type
Payload
Rocket body
Debris
Shape & HBR
Box + 1 Pan, 10.1 m
Radar Cross Section
13.562 m², Large (>1 m²)

Expand to show TLE details & history
Last TLE update: 16 hours ago

TLE from 16 hours ago
0 STARLINK-1351
1 45697U 20035AS  26228.43276043  .00047451  00000-0  33541-3 0  9990
2 45697  53.0402 318.2819 0005233   6.9889 353.1201 15.73540824344377
Epoch: 2026-08-16T10:23Z
TLE epoch observation values (Epoch: 2026-08-16T10:23:10.501Z)
Latitude
-0.00001°
Longitude
-162.34122°
Altitude
346.195 km
Speed
7.704 km/s
True Right ascension
21h 13m 07s
True Declination
0° 00' 00"
Sunlit
Object was in full shadow at epoch
Visualization orbit readout
Latitude
Unknown
Longitude
Unknown
Altitude
Unknown
Speed
Unknown
Apparent Right ascension
Unknown
Apparent Declination
Unknown
Sunlit
N/A
Visualization observer readout
Local Sidereal Time
16:42:04
Azimuth
Unknown
Elevation
Unknown
Doppler factor
Unknown
Orbital elements
Apogee altitude
352.588 km
Perigee altitude
345.547 km
Semi-major axis
6,727.204 km
Eccentricity
0.00052
Inclination
53.0402°
RAAN
318.2819°
Arg. of periapsis
6.9889°
True anomaly
353.11291°
Mean anomaly
353.1201°
Eccentric anomaly
353.11651°
Mean motion
3.93361 °/min
Orbital period
91.52 mins
BSTAR
0.00033541
Loading maneuver chart data...
Computing Atmospheric mass density...

Documentation

Showing up to 5 results
|